Regional Weather Roundup
Issued by NWS

Home | Current Version | Previous Version | Text Only | Print | Product List | Glossary Off
Versions: 1 2 3 4 5 6 7 8 9 10 11 12 13 14 15 16 17 18 19 20 21 22 23 24 25 26 27 28 29 30 31 32 33 34 35 36 37 38 39 40 41 42 43 44 45 46 47 48 49 50

000
ASUS43 KLOT 230621
RWRIL

ILLINOIS REGIONAL WEATHER ROUNDUP
NATIONAL WEATHER SERVICE CHICAGO/ROMEOVILLE IL
100 AM CDT SAT MAY 23 2015

NOTE: "FAIR" INDICATES FEW OR NO CLOUDS BELOW 12,000 FEET WITH NO
SIGNIFICANT WEATHER AND/OR OBSTRUCTIONS TO VISIBILITY.

* THESE STATIONS ARE NOT UNDER NWS QUALITY CONTROL. THEY ALSO MAY NOT
  REPORT WEATHER SUCH AS PRECIPITATION OR FOG.

ILZ001-002-007-009-015-016-024-230700-
NORTHWEST ILLINOIS

CITY           SKY/WX    TMP DP  RH WIND       PRES   REMARKS
MOLINE         CLOUDY    60  47  61 E7        30.23R
6HR MIN TEMP:  57; 6HR MAX TEMP:  73;

STERLING*      CLOUDY    55  36  47 E8        30.26S
SAVANNA*       MOCLDY    60  33  36 SE8       30.25S
$$

ILZ003-004-008-010-011-017-018-230700-
NORTH CENTRAL ILLINOIS

CITY           SKY/WX    TMP DP  RH WIND       PRES   REMARKS
ROCKFORD       CLOUDY    52  33  48 SE5       30.30S
6HR MIN TEMP:  52; 6HR MAX TEMP:  71;

FREEPORT*      CLOUDY    51  37  57 E5        30.29R
ROCHELLE*      MOCLDY    52  34  50 SE6       30.28F
DE KALB*       PTCLDY    49  32  53 SE8       30.29F
PERU*          CLOUDY    57  39  50 E7        30.27F
$$

ILZ005-006-012>014-019>023-230700-
NORTHEAST ILLINOIS

CITY           SKY/WX    TMP DP  RH WIND       PRES   REMARKS
CHICAGO-OHARE  PTCLDY    50  33  52 SE3       30.29S
6HR MIN TEMP:  50; 6HR MAX TEMP:  57;

CHICAGO-MIDWAY MOCLDY    55  37  50 CALM      30.29S
6HR MIN TEMP:  55; 6HR MAX TEMP:  57;

AURORA         PTCLDY    49  34  56 CALM      30.29S
6HR MIN TEMP:  48; 6HR MAX TEMP:  65;

LANSING*       MOCLDY    50  39  65 CALM      30.29S
JOLIET*        CLEAR     51  41  68 CALM      30.29S
WAUKEGAN       MOCLDY    44  35  70 S5        30.29S
6HR MIN TEMP:  43; 6HR MAX TEMP:  51;

DUPAGE AIRPORT CLEAR     50  33  52 E3        30.28S
6HR MIN TEMP:  50; 6HR MAX TEMP:  61;

KANKAKEE*      CLEAR     53  40  61 CALM      30.29S
WHEELING       PTCLDY    47  36  65 CALM      30.31S
6HR MIN TEMP:  47; 6HR MAX TEMP:  56;

MORRIS*        PTCLDY    53  36  53 CALM      30.25S
ROMEOVILLE*    CLEAR     48  38  66 CALM      30.29S
NORTHERLY ISL    N/A     51  41  68 CALM        N/A
$$

LMZ740>746-230700-
SOUTHERN LAKE MICHIGAN

STATION/POSITION SKY/WX   TEMP    WIND        PRES    VSBY  WAVE
                          AIR SEA DIR/SP/G                  HT/PER
                          (F)     (DEG/KT/KT) (MB)    (MI)  (FT/S)
SOUTHERN BUOY              44 38  130/  6/  6 1026.2F         0
HARRISON CRIB              52     110/  8/  9   N/A
BURNHAM HARBOR             51      CALM  /  5   N/A
CALUMET HARBOR             53      50/  4/  6   N/A
BURNS HARBOR               56      90/  7/  9 1026.1F
MICHIGAN CITY              54     100/  2/  4   N/A
MICHIGAN CITY 6N           53 52  120/  4/  4   N/A           1/ 3
ST. JOSEPH                 55 53  160/  4/  6   N/A           1
$$

ILZ025>027-034>036-040-047-049-050-058-095>099-230700-
WEST-CENTRAL ILLINOIS

CITY           SKY/WX    TMP DP  RH WIND       PRES   REMARKS
QUINCY         CLOUDY    59  53  80 CALM      30.23S
GALESBURG*     CLOUDY    60  51  72 SW3       30.24S
MACOMB*        CLOUDY    61  55  80 CALM      30.26S
JACKSONVILLE*  CLOUDY    64  55  72 S3        30.24R
PITTSFIELD*    CLOUDY    63  51  67 CALM      30.25S
$$

ILZ028>032-037-038-041>044-048-051>054-059>061-230700-
CENTRAL ILLINOIS

CITY           SKY/WX    TMP DP  RH WIND       PRES   REMARKS
PONTIAC        CLOUDY    59  41  50 E7        30.28S
BLOOMINGTON    CLOUDY    62  40  44 SE12      30.27S
DECATUR        CLOUDY    64  49  57 W7        30.26S
PEORIA         CLOUDY    64  47  53 NW5       30.25R
6HR MIN TEMP:  62; 6HR MAX TEMP:  74;

LACON*         CLOUDY    63  36  36 SE7       30.24F
LINCOLN*       CLOUDY    66  51  59 CALM      30.24S
SPRINGFIELD    CLOUDY    63  54  72 CALM      30.24F
6HR MIN TEMP:  63; 6HR MAX TEMP:  76;

TAYLORVILLE    CLOUDY    63  54  72 N3        30.24F
$$

ILZ033-039-045-046-055>057-062-063-230700-
EAST-CENTRAL ILLINOIS

CITY           SKY/WX    TMP DP  RH WIND       PRES   REMARKS
CHAMPAIGN      CLOUDY    62  42  47 E7        30.26S
DANVILLE*      CLOUDY    60  39  46 E9        30.25S
RANTOUL*       CLOUDY    64  40  42 E8        30.26S
MATTOON        CLOUDY    63  51  65 CALM      30.25S
PARIS*         CLOUDY    62  52  70 S3        30.27F
$$

ILZ079-100>102-230700-
SOUTHWEST ILLINOIS

CITY           SKY/WX    TMP DP  RH WIND       PRES   REMARKS
ALTON          CLOUDY    60  59  96 CALM      30.26R
BELLEVILLE     CLOUDY    63  56  80 CALM      30.24S
CAHOKIA*       CLOUDY    63  55  75 CALM      30.25R
SPARTA*        CLOUDY    61  54  78 CALM      30.26F
$$

ILZ064>066-069>071-074>076-080>082-084>086-088>090-092>094-230700-
SOUTH-CENTRAL ILLINOIS

CITY           SKY/WX    TMP DP  RH WIND       PRES   REMARKS
CARBONDALE     MOCLDY    57  55  93 CALM      30.25F
6HR MIN TEMP:  57; 6HR MAX TEMP:  68;

CAIRO*         PTCLDY    59  56  88 SE3       30.25F
EFFINGHAM*     CLOUDY    59  50  71 CALM      30.28S
MARION         MOCLDY    59  55  88 CALM      30.27S
MT. VERNON     MOCLDY    55  50  82 CALM      30.26F
CENTRALIA*     MOCLDY    60  53  76 CALM      30.26S
SALEM*         CLOUDY    63  54  73 CALM      30.26S
METROPOLIS*    CLOUDY    59  58  98 CALM      30.25S
$$

ILZ067-068-072-073-078-083-087-091-230700-
SOUTHEAST ILLINOIS

CITY           SKY/WX    TMP DP  RH WIND       PRES   REMARKS
LAWRENCEVILLE  CLOUDY    60  54  80 CALM      30.28S
FLORA*         CLOUDY    60  54  80 CALM      30.27S
FAIRFIELD*     MOCLDY    58  55  88 CALM      30.25F
HARRISBURG*    PTCLDY    57  57 100 CALM      30.27F
ROBINSON*      CLOUDY    60  53  79 CALM      30.28R
CARMI*         PTCLDY    57  52  81 CALM      30.27S
$$

ABBREVIATIONS USED IN REMARKS
   TC - TEMPERATURE IN CELSIUS
  WCI - WIND CHILL INDEX
   HX - HEAT INDEX
  VSB - VISIBILITY
$$




USA.gov is the U.S. government's official web portal to all federal, state and local government web resources and services.